George, South Africa

11:26 AM SAST on January 22, 2018 (GMT +0200)
George

Weather History for FAGG - March, 2013

Change the Weather History Date:

Thursday, March 14, 2013

  Actual Average Record
Temperature  
Mean Temperature 70 °F -  
Max Temperature 80 °F 72 °F 98 °F (1997)
Min Temperature 59 °F 55 °F 51 °F (2006)
Cooling Degree Days 4    
Growing Degree Days 20 (Base 50)    
Moisture  
Dew Point 61 °F    
Average Humidity 76    
Maximum Humidity 94    
Minimum Humidity 48    
Precipitation  
Precipitation 0.00 in - - ()
Sea Level Pressure  
Sea Level Pressure 29.94 in    
Wind  
Wind Speed 5 mph ()    
Max Wind Speed 15 mph    
Max Gust Speed -    
Visibility 7.5 miles    
Events      
Averages and records for this station are not official NWS values.
T = Trace of Precipitation, MM = Missing Value Source: Averaged Metar Reports

Daily Weather History Graph

Daily Weather History Graph

Search for Another Location

Airport or City:

Trip Planner

Search our weather history database for the weather conditions in past years. The results will help you decide how hot, cold, wet, or windy it might be!

Date:

Astronomy

Mar. 14, 2013 Rise Set
Actual Time 6:28 AM SAST 6:49 PM SAST
Civil Twilight 6:03 AM SAST 7:14 PM SAST
Nautical Twilight 5:34 AM SAST 7:44 PM SAST
Astronomical Twilight 5:04 AM SAST 8:13 PM SAST
Moon 8:57 AM SAST (3/14) 8:11 PM SAST (3/14)
Length of Visible Light 13h 10m
Length of Day
12h 20m
Waxing Crescent, 7% of the Moon is Illuminated
Mar 14
Waxing Crescent
Mar 19
First Quarter
Mar 27
Full
Apr 3
Last Quarter
Apr 10
New

Hourly Weather History & Observations

Time (SAST) Temp. Dew Point Humidity Pressure Visibility Wind Dir Wind Speed Gust Speed Precip Events Conditions
12:00 AM 66.2 °F 62.6 °F 88% 30.09 in - East 6.9 mph - N/A   Clear
1:00 AM 64.4 °F 60.8 °F 88% 30.06 in - East 4.6 mph - N/A   Clear
2:00 AM 65 °F 63 °F 90% 30.06 in 6 mi ESE 6.9 mph - -  
2:00 AM 64.4 °F 62.6 °F 94% 30.06 in - NE 3.5 mph - N/A   Clear
3:00 AM 64.4 °F 60.8 °F 88% 30.04 in - East 5.8 mph - N/A   Clear
4:00 AM 64.4 °F 60.8 °F 88% 30.04 in - ESE 8.1 mph - N/A   Clear
5:00 AM 64 °F 62 °F 89% 30.04 in 5 mi NE 2.3 mph - -   Partly Cloudy
5:00 AM 64.4 °F 60.8 °F 88% 30.04 in 5.0 mi Variable 2.3 mph - N/A   Scattered Clouds
6:00 AM 60.8 °F 59.0 °F 94% 30.01 in 5.0 mi Variable 1.2 mph - N/A   Scattered Clouds
7:00 AM 60.8 °F 59.0 °F 94% 30.01 in 1.0 mi NNW 2.3 mph - N/A   Scattered Clouds
8:00 AM 63 °F 61 °F 90% 30.03 in 12 mi WNW 3.5 mph - -   Scattered Clouds
8:00 AM 62.6 °F 60.8 °F 94% 30.01 in 6.2 mi Variable 2.3 mph - N/A   Partly Cloudy
9:00 AM 68.0 °F 62.6 °F 83% 30.01 in 6.2 mi Variable 2.3 mph - N/A   Partly Cloudy
10:00 AM 73.4 °F 64.4 °F 73% 30.01 in 6.2 mi Variable 3.5 mph - N/A   Partly Cloudy
11:00 AM 78 °F 62 °F 48% 29.99 in 12 mi East 3.5 mph - -  
11:00 AM 78.8 °F 62.6 °F 57% 29.98 in - ESE 3.5 mph - N/A   Clear
12:00 PM 78.8 °F 64.4 °F 61% 29.95 in - ESE 8.1 mph - N/A   Clear
1:00 PM 78.8 °F 62.6 °F 57% 29.92 in - East 10.4 mph - N/A   Clear
2:00 PM 78 °F 63 °F 51% 29.92 in 12 mi ESE 12.7 mph - -  
2:00 PM 78.8 °F 62.6 °F 57% 29.92 in - ESE 12.7 mph - N/A   Clear
3:00 PM 78.8 °F 64.4 °F 61% 29.89 in - East 11.5 mph - N/A   Clear
4:00 PM 78.8 °F 62.6 °F 57% 29.86 in - East 10.4 mph - N/A   Clear
5:00 PM 77 °F 62 °F 51% 29.84 in 12 mi ESE 15.0 mph - -  
5:00 PM 77.0 °F 62.6 °F 61% 29.83 in - ESE 15.0 mph - N/A   Clear
6:00 PM 71.6 °F 60.8 °F 69% 29.80 in - ESE 12.7 mph - N/A   Clear
7:00 PM 68.0 °F 59.0 °F 73% 29.80 in - East 8.1 mph - N/A   Clear
8:00 PM 65 °F 58 °F 73% 29.82 in 12 mi East 4.6 mph - -  
8:00 PM 64.4 °F 59.0 °F 83% 29.80 in - East 4.6 mph - N/A   Clear
9:00 PM 64.4 °F 59.0 °F 83% 29.80 in - Calm Calm - N/A   Clear
10:00 PM 60.8 °F 59.0 °F 94% 29.80 in - West 5.8 mph - N/A   Clear
11:00 PM 62.6 °F 59.0 °F 88% 29.80 in 5.0 mi West 5.8 mph - N/A   Unknown